CST,Max TemperatureF,Mean TemperatureF,Min TemperatureF,Max Dew PointF,MeanDew PointF,Min DewpointF,Max Humidity, Mean Humidity, Min Humidity, Max Sea Level PressureIn, Mean Sea Level PressureIn, Min Sea Level PressureIn, Max VisibilityMiles, Mean VisibilityMiles, Min VisibilityMiles, Max Wind SpeedMPH, Mean Wind SpeedMPH, Max Gust SpeedMPH,PrecipitationIn, CloudCover, Events, WindDirDegrees
2013-2-1,66,44,23,19,14,10,64,35,13,30.30,30.25,30.18,10,10,10,15,7,18,0.00,0,,285
2013-2-2,62,43,24,21,15,10,59,32,14,30.38,30.32,30.25,10,10,10,18,8,20,0.00,0,,32
2013-2-3,60,44,28,28,23,18,69,46,25,30.37,30.20,30.06,10,10,10,18,6,22,0.00,3,,34
2013-2-4,64,52,39,30,27,21,61,40,26,30.10,30.05,30.01,10,10,10,24,9,30,0.00,1,,295
2013-2-5,64,46,28,34,28,21,80,51,26,30.13,30.07,30.02,10,10,10,18,6,24,0.00,0,,306
2013-2-6,69,50,30,36,28,25,80,51,21,30.06,30.02,29.95,10,10,10,20,6,24,0.00,0,,304
2013-2-7,62,47,32,30,24,19,65,37,19,30.21,30.12,30.03,10,10,10,22,8,25,0.00,0,,331
2013-2-8,62,47,32,34,29,19,81,50,30,30.22,30.13,30.01,10,10,10,20,8,25,0.00,1,,81
2013-2-9,73,58,42,37,28,12,76,41,13,30.02,29.88,29.75,10,10,3,34,12,45,0.00,3,,203
2013-2-10,55,44,33,19,15,12,44,32,22,30.03,29.98,29.94,10,10,10,18,10,25,0.00,0,,296
2013-2-11,64,46,28,28,20,12,59,39,21,30.05,29.97,29.87,10,10,10,23,8,26,0.00,1,,301
2013-2-12,50,38,26,27,13,3,70,37,16,30.14,30.04,29.92,10,10,10,30,13,36,0.00,0,,297
2013-2-13,53,34,14,18,6,-2,79,37,14,30.17,30.12,30.05,10,10,10,16,7,21,0.00,0,,287
2013-2-14,60,40,19,14,8,-2,54,31,14,30.14,30.09,30.03,10,10,10,26,7,24,0.00,0,,268
2013-2-15,44,34,24,27,23,5,86,61,35,30.39,30.27,30.13,10,10,10,25,11,30,0.00,2,,17
2013-2-16,59,36,12,25,14,3,93,51,18,30.45,30.35,30.24,10,10,10,14,6,26,0.00,0,,269
2013-2-17,66,40,15,18,9,1,58,31,11,30.23,30.06,29.94,10,10,10,20,5,23,0.00,0,,33
2013-2-18,62,46,30,16,7,-2,40,20,11,30.13,30.04,29.93,10,10,10,31,12,39,0.00,0,,285
2013-2-19,60,46,32,30,18,3,53,33,24,30.15,30.07,29.96,10,10,10,18,6,24,0.00,3,,65
2013-2-20,73,48,24,34,21,5,86,39,10,29.99,29.77,29.56,10,10,8,29,12,39,0.00,2,,208
2013-2-21,53,38,24,27,16,3,75,42,19,29.99,29.88,29.71,10,10,7,28,18,34,0.00,1,,278
2013-2-22,55,37,19,18,10,3,58,33,18,30.06,30.00,29.94,10,10,10,23,7,28,0.00,0,,298
2013-2-23,60,42,23,21,13,3,59,33,15,30.10,30.01,29.90,10,10,10,22,7,25,0.00,0,,235
2013-2-24,71,48,24,16,9,0,51,26,10,29.90,29.77,29.62,10,10,4,34,11,40,0.00,2,,280
2013-2-25,48,38,28,16,10,0,55,34,20,30.05,29.96,29.80,10,10,10,30,21,34,0.00,1,,288
2013-2-26,60,38,17,10,3,-6,50,26,11,30.03,29.95,29.89,10,10,10,18,7,28,0.00,0,,247
2013-2-27,48,39,28,16,9,0,44,29,18,30.27,30.18,30.00,10,10,10,24,13,25,0.00,0,,28
2013-2-28,53,38,23,16,10,1,54,33,16,30.31,30.27,30.22,10,10,10,13,8,16,0.00,0,,1